Location: Unspecified
(51.0000°N, 0.0000°E)
Time: 14:58:12
(UTC+00:00)

deb HAPS - Visible Passes

Search period start: 04 April 2026 00:00
Search period end: 14 April 2026 00:00
Orbit: 546 x 645 km, 82.1° (Epoch: 29 March)

Date Brightness Start Highest point End Pass type
(mag) Time Alt. Az. Time Alt. Az. Time Alt. Az.
4 Apr ? 00:21:01 10° NNW 00:22:14 18° NNW 00:22:14 18° NNW visible
4 Apr ? 22:53:43 10° N 22:55:27 20° NNE 22:55:27 20° NNE visible
5 Apr ? 00:31:09 10° NNW 00:32:07 15° NW 00:32:07 15° NW visible
5 Apr ? 23:03:26 10° N 23:05:20 24° NNE 23:05:20 24° NNE visible
6 Apr ? 00:41:26 10° NW 00:42:00 13° NW 00:42:00 13° NW visible
6 Apr ? 23:13:14 10° N 23:15:14 26° N 23:15:14 26° N visible
7 Apr ? 21:47:21 10° NNE 21:48:28 12° NE 21:48:28 12° NE visible
7 Apr ? 23:23:07 10° NNW 23:25:07 27° NNW 23:25:07 27° NNW visible
8 Apr ? 21:56:29 10° NNE 21:58:21 16° NE 21:58:21 16° NE visible
8 Apr ? 23:33:04 10° NNW 23:35:01 26° NNW 23:35:01 26° NNW visible
9 Apr ? 22:05:57 10° NNE 22:08:15 22° NE 22:08:15 22° NE visible
9 Apr ? 23:43:07 10° NNW 23:44:54 22° NW 23:44:54 22° NW visible
10 Apr ? 22:15:34 10° N 22:18:08 28° NE 22:18:08 28° NE visible
10 Apr ? 23:53:17 10° NW 23:54:48 18° NW 23:54:48 18° NW visible
11 Apr ? 22:25:17 10° N 22:28:02 36° NNE 22:28:02 36° NNE visible
12 Apr ? 00:03:39 10° NW 00:04:42 14° WNW 00:04:42 14° WNW visible
12 Apr ? 21:00:20 10° NE 21:00:58 10° ENE 21:01:17 10° ENE visible
12 Apr ? 22:35:05 10° N 22:37:56 43° N 22:37:56 43° N visible
13 Apr ? 00:14:35 10° WNW 00:14:36 10° WNW 00:14:36 10° WNW visible
13 Apr ? 21:08:46 10° NNE 21:11:06 15° ENE 21:11:11 15° ENE visible
13 Apr ? 22:44:58 10° NNW 22:47:51 43° NNW 22:47:51 43° NNW visible
